ニート彗星

303P/NEAT (2014)

English version
Home page
Updated on May 8, 2015

---------------------------------------------------------------------

・ プロフィール

符号 303P/2014 L1
検出日 2014年6月1日
検出光度 19.7等
検出者 Erwin Schwab and Pablo Ruiz (European Space Agency's Optical Ground Station, Tenerife)

・ 写真集

・ 軌道要素

Epoch 2014 Oct. 30.0 TT = JDT 2456960.5
T 2014 Oct. 13.56144 TT                                 MPCW
q   2.4876603            (2000.0)            P               Q
n   0.08644200     Peri.  357.01150     +0.96614861     +0.25674171
a   5.0658562      Node   348.01998     -0.23409718     +0.83122728
e   0.5089359      Incl.    7.00353     -0.10842219     +0.49309726
P  11.4
From 223 observations 2003 Oct. 17-2014 Nov. 10, mean residual 0".5.

・ 光度変化

        m1 = 13.0 + 5 logΔ + 10.0 log r

---------------------------------------------------------------------

軌道要素はM.P.E.C. 2015-A10に掲載されたものです。
光度グラフはComet for Windowsで作成したものです。

---------------------------------------------------------------------

Copyright(C) Seiichi Yoshida (comet@aerith.net). All rights reserved.